Location: Praha
(50.0830°N, 14.4670°E)
Time: 09:57:31
(UTC+02:00)

ISS - Pass Details

Date: 02 May 2025
Orbit: 416 x 419 km, 51.6° (Epoch: 18 May)

Event Time Altitude Azimuth Distance (km) Brightness Sun altitude
Exits shadow 03:00:59 65° 280° (W) 464 -3.7 -19.2°
Maximum altitude 03:01:24 80° 346° (NNW) 428 -3.8 -19.2°
Drops below altitude 10° 03:04:46 10° 75° (ENE) 1,497 -0.3 -18.9°
Sets 03:06:52 0° 77° (ENE) 2,362 0.8 -18.7°
